Wind_Speed
19 20 20 21 23 24 26 28 29 30 32 33 34 35 36 37 37 37 37 37 37 37 36 36 35 35 34 34 33 32 31 31 30 29 28 28 28 28 29 29 29 30 30 30 30 30 30 29 29 29 28 27 26 25 24 24 24 23 23 23 23 23 23 24 24 24 25 25 25
19 19 20 21 22 24 26 27 29 30 31 31 32 33 34 35 35 36 36 35 35 34 34 34 33 33 33 32 32 31 31 30 29 29 28 28 29 29 29 29 30 30 30 30 30 30 30 30 30 29 28 27 26 25 25 24 24 23 23 24 24 24 24 24 25 25 25 26 26
19 19 20 21 22 24 25 27 28 29 30 31 31 31 32 33 34 34 34 34 33 33 33 32 32 32 32 31 31 30 30 29 29 29 29 29 29 29 30 30 30 31 31 31 31 30 30 30 30 29 29 28 26 26 25 25 24 24 24 24 25 25 25 25 26 26 26 27 26
19 20 20 21 22 23 25 27 28 29 30 30 30 31 31 31 32 32 32 32 32 32 32 32 32 31 31 30 30 29 29 29 29 29 29 29 30 30 30 30 31 31 31 31 31 31 30 30 30 29 29 28 27 26 26 25 25 24 25 25 25 26 26 26 26 27 27 27 26
19 19 20 21 21 22 24 25 27 28 29 30 30 31 31 31 31 31 31 31 31 31 31 31 31 30 30 30 29 29 29 29 29 29 29 30 30 30 30 31 31 31 31 31 31 31 31 30 30 30 29 28 27 27 26 26 25 25 25 26 26 26 26 26 26 26 26 26 26
18 18 18 19 20 21 22 24 25 27 28 29 30 31 31 31 31 31 31 30 30 30 30 30 30 30 29 29 29 29 29 29 29 30 30 30 30 30 31 31 31 31 31 31 31 31 31 31 30 30 29 29 28 27 27 26 26 26 26 26 27 27 26 26 26 25 25 25 25
17 17 17 17 18 19 20 21 23 24 26 28 29 30 30 30 31 31 30 30 29 29 29 29 29 29 29 29 29 29 30 30 30 31 31 31 31 31 31 31 31 31 32 31 31 31 31 31 30 30 30 29 28 28 28 27 27 27 27 27 27 26 26 25 25 24 24 24 23
16 16 16 17 17 18 19 20 21 22 23 25 26 27 27 28 28 29 29 29 29 29 29 29 30 30 30 30 30 31 31 31 31 32 32 32 32 32 32 32 32 32 32 32 32 32 31 31 31 30 30 29 29 28 28 28 27 27 27 27 27 26 25 25 24 23 23 22 21
17 17 17 17 17 18 18 19 19 20 21 22 22 23 23 24 25 25 26 27 27 28 28 29 30 30 31 31 32 32 32 32 33 33 33 33 33 33 33 33 33 33 33 32 32 32 31 31 31 30 30 30 29 29 28 28 28 27 27 27 26 26 25 24 23 22 21 20 19
17 17 17 18 18 18 18 19 19 19 20 20 20 20 21 21 22 23 23 24 25 26 27 28 29 30 31 31 32 33 33 33 34 34 34 34 34 34 34 34 34 34 33 33 33 32 32 31 31 31 30 30 29 29 29 28 28 27 27 26 26 25 24 23 21 20 19 18 17
17 17 17 18 18 18 18 19 19 19 19 20 20 20 20 20 21 21 21 22 23 24 25 25 26 27 28 28 29 30 31 32 33 33 34 34 34 34 34 34 34 34 34 33 33 33 32 32 31 31 30 30 29 29 28 28 27 27 26 25 24 23 22 21 20 19 17 16 16
17 17 17 17 17 17 18 19 19 19 20 20 20 20 20 20 20 21 21 22 22 22 22 22 23 23 24 24 25 26 27 28 29 30 31 32 33 33 33 33 33 33 33 33 33 33 32 32 32 31 31 30 29 29 28 27 26 25 25 24 23 22 21 20 19 18 17 16 15
17 17 17 17 17 17 18 19 19 20 20 20 20 20 20 20 20 21 21 21 21 21 21 21 21 21 21 21 22 22 23 24 25 26 27 28 29 30 31 31 32 32 32 32 31 31 31 31 31 31 30 30 29 28 27 26 25 24 23 22 21 21 20 19 18 17 17 16 16
18 18 18 18 18 18 18 19 19 20 20 20 20 20 20 20 21 21 21 21 21 21 20 20 20 20 20 20 20 20 21 21 22 23 24 25 26 27 28 28 28 29 29 29 29 29 29 29 29 29 29 29 28 27 26 25 24 23 22 20 19 19 18 17 17 17 18 19 20
19 19 19 18 19 19 19 19 20 20 20 20 20 20 20 20 21 21 21 21 21 21 20 20 20 20 20 20 20 20 20 21 21 22 22 23 24 24 25 25 25 25 25 25 25 25 25 25 25 26 26 25 25 24 23 22 21 20 19 18 17 16 16 17 19 21 22 24 25
21 20 19 20 20 20 20 20 20 20 20 20 19 19 20 20 20 20 21 21 21 21 21 21 21 20 20 20 20 20 21 21 21 22 22 22 22 22 22 22 21 21 21 20 20 20 20 20 20 20 20 20 19 19 18 17 16 16 16 16 16 17 19 21 24 26 28 29 28
22 21 21 21 21 20 20 20 20 20 20 19 19 19 19 20 20 20 20 20 21 21 21 21 21 21 21 21 21 21 21 21 21 21 22 21 21 21 20 19 18 18 17 16 16 15 15 15 15 14 14 14 14 14 14 14 15 16 18 19 20 22 24 27 30 32 34 34 32
23 22 22 21 21 21 21 20 20 20 20 19 19 18 19 19 19 19 20 20 20 20 20 20 20 20 20 20 20 21 21 21 21 21 21 20 20 19 18 17 16 15 14 13 12 11 11 10 10 10 10 11 11 13 14 16 18 20 22 23 26 28 31 33 35 38 39 38 36
24 23 23 23 22 22 21 21 21 20 20 20 19 19 18 19 19 18 18 19 19 19 19 19 20 20 20 20 20 20 20 20 20 19 19 19 19 18 17 15 14 13 12 11 11 10 9 8 8 8 9 11 13 16 19 21 23 24 26 27 30 32 34 36 38 39 39 38 37
25 24 24 23 23 22 22 22 21 21 21 21 21 20 19 19 19 18 18 18 18 18 18 18 19 19 19 19 19 19 19 18 18 18 18 17 17 16 15 14 13 12 12 12 11 9 8 7 8 10 13 17 20 22 24 25 26 27 28 29 30 32 33 34 35 35 35 35 35
26 25 25 24 24 23 23 23 22 22 22 22 22 21 20 20 19 19 18 18 17 17 18 18 18 18 18 17 17 17 17 16 16 15 16 16 16 15 14 13 13 14 14 12 10 8 10 13 16 20 22 24 25 25 26 27 27 27 27 26 26 26 26 27 27 28 28 28 28
26 25 25 25 24 24 24 24 24 24 24 24 23 22 21 21 20 20 19 18 18 17 17 18 18 17 17 16 16 15 15 14 13 13 14 14 15 15 15 15 15 15 15 14 15 19 23 25 26 26 26 25 25 25 25 25 25 23 22 20 19 18 18 18 19 19 19 19 19
26 26 26 26 26 26 26 26 26 25 25 24 24 23 22 22 21 21 20 19 18 18 18 18 18 17 16 15 15 14 13 13 12 12 12 13 14 15 17 18 19 19 20 20 22 24 27 27 26 25 24 23 23 23 22 21 20 18 17 15 14 13 12 12 12 12 11 11 11
27 27 27 27 27 27 27 27 26 26 25 24 23 23 22 22 21 21 20 20 19 19 19 19 19 18 17 16 15 15 15 14 14 14 14 15 17 20 23 25 26 26 25 23 23 23 23 23 22 22 22 21 20 20 19 18 17 16 14 13 11 10 9 8 7 7 7 7 6
28 28 28 28 28 28 28 27 27 26 25 25 24 23 22 21 21 21 21 20 20 20 20 20 20 19 18 17 17 18 19 18 17 17 18 19 21 23 25 27 28 27 26 24 23 22 22 22 22 21 20 19 18 17 16 16 15 15 14 12 11 9 8 7 7 6 6 6 5
29 29 29 29 29 28 28 27 27 26 26 26 26 25 24 22 21 21 22 22 22 22 22 22 21 20 19 18 19 19 19 18 18 19 20 20 22 23 24 25 25 25 24 23 21 21 22 23 23 21 19 17 16 16 15 15 15 15 13 12 11 9 9 8 8 8 7 6 6
29 30 30 29 29 29 29 28 27 27 26 27 27 27 26 24 23 23 24 24 24 25 25 24 22 20 18 16 15 15 16 18 19 20 19 19 19 20 21 22 22 22 22 21 20 20 22 23 22 21 18 16 15 15 15 15 15 14 13 11 10 10 10 10 10 9 8 9 9
30 30 30 31 31 31 30 30 29 28 28 28 28 28 28 27 26 25 25 26 27 27 26 24 22 18 14 13 18 23 29 33 34 31 25 20 17 17 18 18 19 19 19 19 19 20 22 22 21 20 18 16 15 15 15 16 15 14 13 12 12 12 12 11 10 9 9 10 11
31 31 32 32 32 32 32 31 31 31 30 30 29 29 29 28 27 27 27 28 29 28 26 23 19 15 16 22 29 34 37 38 38 37 32 27 22 19 18 17 18 18 18 18 19 20 22 21 20 19 18 17 16 15 16 16 16 15 14 14 14 13 12 11 10 10 11 11 11
33 33 33 33 33 33 33 33 32 32 31 31 30 30 30 29 29 29 29 30 29 28 25 21 19 20 25 29 32 34 35 36 37 37 36 33 29 25 21 19 19 18 18 18 20 21 21 20 19 18 18 17 16 16 16 16 16 16 16 15 14 13 12 12 11 12 12 12 12
34 34 34 34 34 34 34 33 33 33 32 32 32 32 31 31 30 31 31 30 29 27 24 21 22 26 29 30 31 32 33 35 36 37 37 36 33 28 23 20 20 19 18 19 20 20 19 18 17 18 18 17 16 16 16 17 17 17 17 16 15 14 14 13 13 13 13 13 13
35 35 35 35 35 35 35 35 34 34 34 33 33 33 33 32 31 31 30 29 28 25 22 21 25 28 29 27 26 26 26 28 31 34 35 34 29 25 22 21 20 19 18 18 19 18 17 15 16 17 17 17 16 16 17 17 18 19 19 18 17 16 15 15 14 14 14 14 14
35 35 36 36 36 36 36 36 36 35 35 35 34 33 33 32 31 30 29 27 26 23 20 21 25 27 25 21 19 19 21 23 26 29 31 29 25 22 21 20 19 18 17 16 16 15 14 14 16 17 17 17 16 17 18 19 20 20 20 19 18 17 17 16 15 15 15 15 16
36 36 37 37 37 37 37 37 36 36 35 35 34 32 31 31 31 30 28 26 23 20 19 22 24 24 21 18 18 19 20 21 22 24 24 23 21 20 20 19 18 17 16 15 14 13 13 14 16 17 17 17 17 18 19 20 21 21 21 19 18 18 17 17 16 16 16 17 17
36 37 37 37 37 37 37 37 36 36 35 34 32 30 28 28 30 30 27 23 19 16 17 21 22 21 19 18 18 18 18 17 17 17 18 18 18 19 19 19 18 17 16 15 14 14 14 15 16 17 17 18 19 20 20 21 22 21 20 19 19 19 18 18 18 18 18 19 19
35 36 36 36 37 37 37 37 36 36 35 33 31 29 27 27 30 30 27 20 15 13 14 17 18 18 17 17 16 15 14 13 14 15 16 17 18 19 19 19 18 17 16 16 15 15 15 15 16 16 17 18 19 20 21 22 21 21 20 20 20 20 20 20 20 20 20 20 21
33 34 35 35 35 36 36 36 35 35 34 33 30 29 29 31 32 31 26 18 12 10 11 12 14 14 14 14 13 12 12 13 14 15 16 17 19 20 20 19 18 17 17 17 17 17 16 16 16 16 17 18 19 21 21 22 21 21 20 20 20 21 21 21 21 21 22 22 22
31 32 32 33 34 34 34 33 33 33 33 32 30 30 32 34 33 31 26 17 11 8 9 10 12 12 12 11 11 13 14 15 16 16 17 18 19 19 19 19 18 17 17 18 18 17 16 16 16 16 16 17 19 20 21 21 21 20 20 20 21 21 22 22 22 22 22 22 22
29 29 30 31 32 32 32 31 31 32 32 32 31 32 33 33 33 30 25 17 10 7 7 9 10 10 11 12 14 16 17 18 17 17 17 18 18 19 19 18 18 17 18 18 18 17 16 15 15 15 15 16 18 19 20 20 20 19 20 20 21 21 22 22 22 22 22 21 20
28 28 28 29 30 30 30 29 30 31 32 32 33 33 33 33 32 29 24 16 10 7 7 9 9 10 12 14 17 19 19 19 18 18 18 18 18 19 19 19 18 18 18 18 17 16 15 14 14 14 15 16 17 18 19 19 19 19 19 20 21 21 22 22 22 21 20 19 19
26 26 26 27 28 28 29 29 29 31 32 34 34 34 33 32 31 29 25 17 11 9 8 9 9 11 13 16 18 19 19 19 19 19 18 18 19 19 19 19 18 18 18 17 17 16 15 14 14 14 14 15 16 17 18 18 18 18 19 20 21 21 21 21 20 19 19 19 19
Wind_Direction
201 201 201 200 199 198 196 196 195 195 194 194 194 194 194 195 197 198 199 200 202 203 205 207 209 211 213 214 215 216 216 217 218 219 220 221 222 224 225 227 229 232 235 238 241 244 246 248 250 251 251 250 249 247 246 246 247 247 249 251 252 254 256 257 259 260 261 262 264
201 202 202 202 200 199 198 197 196 196 196 196 197 196 197 198 199 200 202 204 206 208 210 212 214 215 216 217 217 218 218 219 220 221 222 222 224 225 226 228 230 233 236 239 242 245 247 249 250 250 250 248 246 245 244 244 244 246 248 250 252 253 255 257 258 259 260 262 263
203 204 204 203 203 201 200 198 197 197 198 199 199 199 200 201 202 204 206 208 210 212 214 216 218 219 219 220 220 220 221 222 223 224 224 225 226 227 228 230 232 235 238 241 244 246 248 249 250 250 249 247 245 244 243 243 244 246 248 249 251 253 255 256 257 259 260 261 263
206 206 206 206 205 204 203 201 200 200 201 201 202 203 203 205 207 208 210 212 214 216 218 220 221 222 222 222 222 223 224 225 226 227 227 227 228 229 231 233 235 238 240 243 246 248 249 250 250 249 248 246 244 243 243 243 244 246 248 249 251 253 254 255 257 258 259 261 262
208 209 208 208 208 208 207 207 206 205 205 206 207 207 208 210 212 214 216 217 218 220 221 222 223 224 224 225 225 226 227 228 229 229 230 230 232 233 234 236 238 240 243 245 247 249 250 250 249 249 247 246 245 244 243 243 244 246 247 249 250 252 253 254 256 257 259 260 262
209 209 209 209 209 210 211 212 211 211 211 212 213 214 215 216 218 219 221 222 223 224 225 225 226 227 228 228 228 229 230 230 231 231 232 233 235 236 237 239 241 243 245 247 248 250 250 250 249 248 247 246 245 244 244 244 244 246 247 248 250 251 252 254 255 256 258 259 260
207 207 207 207 207 209 211 213 214 215 216 217 219 220 221 222 223 225 226 227 228 228 229 229 230 231 231 232 232 232 232 233 233 234 234 236 237 238 239 241 243 244 246 248 249 250 250 250 249 248 248 247 246 246 245 245 245 246 247 248 250 251 252 253 255 256 257 258 259
204 205 205 205 205 206 208 211 212 214 216 218 221 222 224 226 227 229 230 231 232 233 233 233 234 235 235 235 235 235 235 236 236 236 237 238 239 240 241 243 244 246 247 248 249 250 250 250 249 249 248 248 247 247 247 247 247 247 248 249 250 251 252 253 255 255 256 257 257
203 203 204 205 205 206 208 210 212 213 215 217 220 221 223 226 228 230 232 233 235 236 236 237 238 238 239 239 239 239 239 239 239 239 239 240 241 242 243 244 245 246 248 249 250 250 250 250 250 249 249 249 249 248 248 248 248 248 249 250 251 252 253 253 254 255 255 255 255
203 204 205 207 207 209 211 213 215 217 218 219 221 222 223 225 228 230 232 234 235 237 237 238 239 240 241 241 242 242 242 242 242 242 242 243 243 244 244 245 246 247 249 250 251 251 251 251 250 250 250 250 249 250 250 249 249 250 250 251 252 253 253 254 254 254 254 253 253
207 207 208 210 211 212 214 217 220 221 223 224 225 226 226 227 228 230 231 233 235 236 237 238 239 240 241 241 242 243 243 244 244 244 245 245 245 246 246 247 248 249 250 251 252 252 252 251 251 250 250 250 250 250 250 251 251 251 252 253 254 254 254 254 253 253 252 251 250
214 214 215 216 217 218 219 222 224 225 226 228 229 229 229 229 230 230 231 233 234 235 235 236 237 238 239 240 240 241 242 243 244 245 246 246 247 248 248 249 250 251 252 253 253 253 253 252 252 251 251 251 251 251 252 252 253 253 254 255 255 255 254 254 253 252 251 248 246
221 221 222 223 224 224 225 226 227 229 229 230 230 231 231 231 231 231 232 233 234 235 235 235 236 237 238 238 239 240 241 242 243 245 246 247 248 249 249 250 251 252 253 254 254 254 254 253 253 252 252 252 252 253 254 254 255 256 256 256 256 256 256 256 255 254 253 251 251
226 227 228 228 229 229 229 230 230 231 232 232 232 232 233 232 232 232 233 234 235 235 236 236 237 237 238 238 239 240 240 242 243 244 245 246 247 248 249 250 251 252 253 254 254 255 254 254 254 253 253 253 254 255 256 256 257 257 257 257 257 258 259 260 261 261 260 260 261
230 231 232 232 233 233 233 233 233 233 233 233 233 233 233 233 232 232 233 234 235 236 237 238 238 239 239 240 240 241 241 242 242 243 244 245 245 247 248 249 250 252 253 254 254 254 254 254 254 254 254 254 254 255 255 255 255 256 256 257 258 260 264 268 270 271 270 269 268
232 234 235 235 235 235 235 235 235 235 235 234 233 233 234 234 233 232 233 234 235 237 238 239 240 241 241 242 242 242 242 242 242 243 243 244 245 246 247 248 250 251 252 253 253 253 252 252 251 250 250 249 249 250 250 250 251 252 254 256 260 265 270 275 278 279 278 275 273
234 235 236 237 237 237 237 237 237 237 236 236 235 235 235 235 234 233 233 234 236 237 239 240 241 243 243 244 244 244 244 244 244 244 245 245 246 247 249 250 251 252 251 250 248 247 244 242 240 238 237 237 238 240 243 247 250 254 258 262 266 270 275 279 282 282 280 277 275
236 236 237 237 238 238 238 239 239 239 239 239 239 238 238 238 237 236 236 236 238 239 241 243 244 245 246 246 247 247 247 247 248 248 249 250 250 251 252 252 250 249 245 240 234 228 222 219 218 219 222 228 236 244 250 255 259 262 265 268 271 274 276 277 276 275 274 274 274
236 236 236 237 238 238 239 240 240 241 242 243 243 243 243 242 242 241 240 239 240 242 243 245 247 248 249 249 250 250 251 252 252 253 254 255 255 254 253 250 245 238 228 217 206 199 197 201 209 221 236 249 258 263 266 267 268 268 269 270 270 271 271 270 268 267 268 270 271
236 236 237 237 238 239 240 241 242 243 245 246 247 248 247 247 247 246 245 244 244 245 246 247 249 250 251 252 252 253 254 255 256 257 258 258 257 255 251 244 232 217 201 189 184 187 199 220 243 259 269 274 276 275 272 270 268 267 266 265 265 264 264 263 263 263 264 266 267
236 236 236 237 238 240 241 243 244 245 247 248 250 251 252 252 252 251 251 250 249 249 249 250 251 252 253 253 254 254 255 257 259 260 260 259 256 252 243 229 211 195 186 186 197 224 250 263 269 273 274 274 272 268 265 263 262 262 261 260 259 259 259 259 259 260 262 263 264
235 235 236 238 239 241 243 244 246 247 248 250 252 254 255 255 255 255 255 254 253 252 251 252 253 254 254 254 254 254 254 255 256 257 257 255 252 246 235 221 210 208 214 229 247 261 267 268 267 266 264 261 257 255 256 256 256 256 255 253 252 252 252 253 255 256 257 258 258
235 236 237 239 241 242 244 245 247 248 250 251 253 255 256 257 257 257 257 256 255 254 252 252 252 253 253 251 249 247 246 245 245 245 245 245 244 242 240 238 238 243 249 255 257 260 261 259 256 252 249 246 246 248 250 250 249 247 244 243 242 241 241 242 244 244 243 240 238
237 238 240 241 242 244 245 247 248 250 251 252 254 255 256 257 257 257 257 257 256 254 252 251 250 249 247 244 241 239 239 240 239 239 241 244 248 252 255 257 259 261 262 261 256 251 246 243 239 238 238 240 243 244 243 241 237 233 230 228 226 224 223 222 220 218 215 210 204
239 241 242 243 245 246 247 249 250 252 252 253 253 253 254 255 255 256 256 257 255 253 251 248 246 243 240 237 238 241 244 245 244 244 246 251 256 261 265 266 267 266 264 261 255 246 237 231 231 233 237 240 240 238 234 229 224 219 215 212 209 205 202 200 201 202 202 200 197
240 242 243 245 246 247 248 250 251 253 254 254 252 251 250 251 255 257 256 254 252 249 247 244 241 237 234 234 239 244 249 253 252 250 251 253 257 261 265 267 267 266 264 261 253 242 232 228 230 235 238 238 234 229 224 218 214 209 204 200 198 199 200 202 205 209 215 221 226
241 242 244 245 246 246 247 248 249 251 252 252 251 249 247 246 248 249 249 247 245 243 240 237 233 228 227 232 242 253 265 272 271 264 257 254 254 255 256 258 260 262 263 260 252 239 231 229 233 236 236 232 228 222 216 210 206 202 200 199 200 202 204 204 204 207 217 229 236
242 242 243 244 244 245 245 246 245 245 245 245 244 243 242 240 239 238 239 239 239 238 235 230 225 223 231 252 264 269 272 274 274 271 265 260 255 250 247 246 250 255 258 256 246 235 229 230 234 235 232 227 222 217 211 205 203 201 201 201 203 204 204 203 204 211 222 232 238
242 242 242 242 242 243 243 243 242 242 242 242 241 239 238 237 236 235 235 235 236 234 230 223 221 232 255 267 267 266 265 266 266 265 263 260 256 250 243 239 239 243 247 246 237 229 226 229 233 232 228 224 220 215 210 207 205 204 204 204 206 207 208 210 215 223 230 235 239
243 242 241 241 241 241 241 241 242 242 242 241 239 237 236 234 234 234 233 232 233 230 226 229 239 251 257 259 261 262 263 263 263 262 260 257 254 251 246 237 234 234 235 233 227 223 223 227 230 229 226 224 221 216 212 210 209 208 208 209 213 213 214 216 223 231 236 238 241
243 242 241 240 240 240 241 241 242 242 241 240 238 236 234 233 231 231 230 229 227 223 225 239 251 253 253 257 261 265 266 266 265 262 259 255 252 247 241 233 230 228 226 223 219 218 220 225 229 229 227 225 221 217 213 212 211 211 213 216 219 219 219 222 229 235 239 242 245
244 243 242 241 240 240 241 241 241 241 240 238 237 236 234 232 230 228 227 225 222 220 225 241 248 251 254 261 268 274 275 272 267 262 256 250 243 236 231 229 228 226 221 217 214 215 219 226 231 232 230 226 220 215 212 212 213 214 216 219 221 221 223 228 233 238 241 244 247
245 244 243 242 241 241 240 240 240 239 239 237 235 234 232 229 227 225 222 220 217 217 225 239 246 251 257 266 277 286 288 281 273 263 253 244 234 228 226 228 227 224 218 214 213 216 223 229 233 234 231 225 218 213 211 212 214 216 218 221 223 225 228 232 236 239 243 246 249
245 244 244 243 242 241 241 241 240 238 237 235 232 230 227 224 221 220 218 215 213 219 234 246 252 255 260 269 282 289 289 284 274 262 250 238 230 226 225 226 224 220 215 213 215 220 226 231 233 233 229 222 215 211 212 214 217 219 221 224 227 230 232 235 237 240 243 247 250
246 245 244 244 243 242 242 241 239 237 235 231 227 223 218 213 212 212 211 210 214 229 250 258 259 259 263 272 280 284 283 277 267 254 242 231 225 223 223 222 219 216 213 213 217 222 227 231 232 231 227 220 214 212 213 216 219 223 226 230 232 234 236 237 239 241 244 247 250
247 246 245 245 244 244 243 242 240 237 233 228 221 216 211 204 204 205 206 208 217 238 257 263 262 263 267 274 277 275 270 261 251 241 232 226 222 220 219 218 214 212 213 216 220 225 228 230 229 228 225 221 218 216 217 219 223 227 231 234 236 237 238 239 240 242 244 247 249
249 248 247 247 246 245 244 242 239 235 231 227 219 212 206 202 202 204 207 209 219 236 250 258 263 267 271 273 269 260 251 243 237 232 228 224 222 220 219 216 213 214 218 223 227 230 230 228 226 225 225 224 223 222 222 224 227 231 235 237 239 239 239 240 241 243 245 247 249
251 250 250 249 248 246 243 240 236 231 228 225 217 209 204 204 206 207 210 213 219 229 243 259 269 273 271 263 251 242 237 233 229 227 225 224 222 220 219 218 217 220 226 232 234 234 231 228 226 226 227 227 226 226 226 228 230 234 237 239 241 241 241 242 243 244 246 249 251
253 252 251 250 248 246 242 236 230 226 222 218 212 208 206 207 208 210 211 214 216 230 252 270 275 271 259 244 236 231 228 226 223 222 221 220 218 218 219 222 224 227 233 237 238 235 232 230 229 229 230 230 228 227 228 229 231 235 238 241 243 244 244 244 245 246 248 251 254
253 252 251 249 247 244 239 232 226 222 218 213 211 210 210 210 211 212 214 216 220 240 264 274 272 260 244 233 228 226 224 221 219 217 215 214 214 216 219 225 229 234 237 238 236 234 233 233 234 234 233 232 230 229 228 229 232 236 240 244 246 247 247 247 247 249 251 254 257
251 249 247 246 244 240 235 229 224 220 218 215 214 213 214 214 214 216 218 224 233 248 261 265 260 247 234 226 225 224 223 220 217 214 212 211 211 215 220 226 233 237 238 237 236 235 235 235 236 237 236 234 232 231 231 232 235 240 245 248 250 250 249 249 250 252 255 257 260
Height
1475 1476 1478 1479 1481 1482 1484 1486 1487 1489 1491 1492 1494 1496 1497 1499 1501 1502 1504 1506 1507 1509 1511 1512 1514 1516 1517 1518 1520 1521 1523 1524 1525 1526 1527 1528 1529 1530 1531 1532 1533 1534 1535 1536 1537 1537 1538 1538 1539 1539 1540 1540 1541 1541 1541 1542 1542 1543 1543 1544 1545 1545 1546 1546 1547 1547 1548 1548 1549
1475 1477 1478 1480 1481 1483 1484 1486 1488 1489 1491 1493 1494 1496 1498 1499 1501 1503 1505 1506 1508 1510 1511 1513 1514 1516 1517 1518 1519 1521 1522 1523 1524 1525 1526 1527 1528 1529 1530 1531 1532 1533 1533 1534 1535 1535 1536 1536 1536 1537 1537 1538 1539 1539 1540 1540 1541 1541 1542 1542 1543 1543 1544 1545 1545 1546 1546 1547 1547
1475 1477 1478 1480 1481 1483 1484 1486 1488 1489 1491 1493 1495 1496 1498 1500 1501 1503 1505 1506 1508 1510 1511 1512 1514 1515 1516 1517 1519 1520 1521 1522 1523 1524 1525 1526 1526 1527 1528 1529 1530 1531 1531 1532 1532 1533 1534 1534 1535 1535 1536 1536 1537 1537 1538 1538 1539 1539 1540 1541 1541 1541 1542 1543 1543 1544 1544 1545 1546
1475 1476 1478 1479 1481 1482 1484 1486 1487 1489 1491 1493 1494 1496 1498 1499 1501 1502 1504 1506 1507 1509 1510 1511 1512 1514 1515 1516 1517 1519 1520 1521 1521 1522 1523 1524 1525 1526 1526 1527 1528 1529 1529 1530 1531 1531 1531 1532 1533 1533 1534 1534 1535 1536 1536 1536 1537 1538 1538 1539 1539 1540 1540 1541 1541 1542 1542 1543 1544
1475 1476 1477 1479 1481 1482 1484 1486 1487 1489 1491 1492 1494 1496 1497 1499 1500 1502 1503 1505 1506 1507 1509 1510 1511 1512 1514 1515 1516 1517 1518 1519 1520 1521 1521 1522 1523 1524 1525 1526 1526 1527 1527 1528 1528 1529 1530 1530 1531 1531 1532 1532 1533 1534 1534 1535 1536 1536 1536 1537 1537 1538 1538 1539 1540 1540 1541 1541 1542
1474 1475 1477 1478 1480 1482 1484 1485 1487 1489 1491 1492 1493 1495 1496 1498 1499 1501 1502 1503 1505 1506 1507 1509 1510 1511 1512 1513 1514 1515 1516 1517 1518 1519 1519 1520 1521 1522 1523 1524 1524 1525 1526 1526 1526 1527 1528 1528 1529 1530 1530 1531 1531 1532 1533 1533 1534 1534 1535 1535 1536 1536 1536 1537 1538 1538 1539 1540 1540
1473 1475 1476 1477 1479 1481 1483 1484 1486 1488 1490 1491 1492 1494 1495 1497 1498 1499 1501 1502 1504 1505 1506 1507 1508 1509 1510 1511 1512 1513 1514 1515 1516 1517 1517 1518 1519 1520 1521 1522 1522 1523 1524 1524 1525 1525 1526 1527 1527 1528 1528 1529 1530 1530 1531 1531 1532 1532 1533 1533 1534 1534 1535 1536 1536 1537 1537 1538 1538
1472 1474 1475 1477 1478 1480 1482 1483 1485 1486 1488 1490 1491 1492 1494 1496 1497 1498 1500 1501 1502 1503 1504 1506 1506 1507 1508 1509 1510 1511 1512 1513 1514 1515 1516 1516 1517 1518 1519 1520 1521 1521 1522 1522 1523 1524 1524 1525 1526 1526 1527 1527 1528 1529 1529 1530 1530 1531 1531 1531 1532 1532 1533 1534 1534 1535 1535 1536 1536
1472 1473 1475 1476 1478 1479 1481 1482 1484 1485 1486 1488 1489 1491 1492 1494 1496 1497 1498 1499 1500 1501 1502 1503 1504 1505 1506 1507 1508 1509 1510 1511 1512 1513 1514 1515 1516 1516 1517 1518 1519 1519 1520 1520 1521 1522 1523 1523 1524 1525 1525 1526 1526 1527 1527 1528 1528 1529 1529 1530 1530 1531 1531 1532 1532 1533 1533 1534 1534
1471 1472 1474 1475 1477 1478 1480 1481 1482 1484 1485 1486 1488 1489 1491 1492 1494 1495 1496 1497 1498 1499 1500 1501 1502 1503 1504 1505 1506 1507 1508 1509 1510 1511 1512 1513 1514 1514 1515 1516 1516 1517 1518 1518 1519 1520 1521 1521 1522 1523 1523 1524 1524 1525 1526 1526 1527 1527 1528 1528 1529 1529 1530 1530 1531 1531 1531 1532 1532
1470 1471 1473 1474 1476 1477 1479 1480 1481 1482 1484 1485 1486 1488 1489 1491 1492 1493 1494 1496 1496 1497 1498 1499 1500 1501 1502 1503 1504 1505 1506 1507 1508 1509 1510 1511 1511 1512 1513 1514 1514 1515 1516 1516 1517 1518 1519 1520 1520 1521 1521 1522 1522 1523 1524 1524 1525 1526 1526 1526 1527 1527 1528 1528 1529 1529 1530 1530 1531
1469 1471 1472 1473 1475 1476 1477 1478 1480 1481 1482 1483 1485 1486 1487 1489 1490 1491 1492 1493 1494 1495 1496 1497 1498 1499 1500 1501 1501 1502 1504 1505 1506 1506 1507 1508 1509 1510 1511 1511 1512 1513 1514 1514 1515 1516 1517 1517 1518 1519 1520 1520 1521 1521 1522 1523 1523 1524 1524 1525 1525 1526 1526 1526 1527 1528 1528 1528 1529
1468 1469 1471 1472 1473 1475 1476 1477 1478 1479 1481 1482 1483 1484 1485 1486 1488 1489 1490 1491 1492 1493 1494 1495 1496 1497 1497 1498 1499 1501 1501 1502 1503 1504 1505 1506 1507 1507 1508 1509 1510 1511 1511 1512 1513 1514 1515 1516 1516 1517 1517 1518 1519 1519 1520 1521 1521 1522 1522 1523 1523 1524 1524 1525 1526 1526 1526 1527 1527
1466 1468 1469 1471 1472 1473 1474 1475 1476 1477 1479 1480 1481 1482 1483 1485 1486 1487 1488 1489 1490 1491 1492 1493 1494 1495 1496 1496 1498 1499 1500 1501 1501 1502 1503 1504 1505 1505 1506 1507 1508 1509 1509 1510 1511 1512 1512 1513 1514 1515 1516 1516 1517 1518 1518 1519 1520 1520 1521 1521 1521 1522 1523 1523 1524 1524 1525 1525 1525
1465 1466 1468 1469 1470 1471 1472 1474 1475 1476 1477 1478 1479 1481 1481 1483 1484 1485 1486 1487 1488 1489 1491 1491 1492 1493 1494 1495 1496 1497 1498 1499 1500 1501 1501 1502 1502 1503 1504 1505 1506 1507 1507 1508 1509 1510 1510 1511 1512 1513 1513 1514 1515 1516 1516 1517 1518 1518 1519 1519 1520 1521 1521 1522 1522 1522 1523 1523 1523
1464 1465 1466 1467 1468 1470 1471 1472 1473 1474 1475 1476 1477 1479 1480 1481 1482 1483 1484 1486 1487 1488 1489 1490 1491 1491 1492 1494 1495 1496 1496 1497 1498 1498 1499 1500 1501 1501 1502 1503 1504 1505 1506 1506 1507 1507 1508 1509 1510 1511 1511 1512 1513 1514 1515 1515 1516 1516 1517 1518 1518 1519 1519 1520 1520 1520 1520 1521 1521
1462 1463 1465 1466 1467 1468 1469 1470 1471 1472 1473 1474 1476 1477 1478 1479 1480 1481 1482 1484 1485 1486 1487 1488 1489 1490 1491 1492 1493 1493 1494 1495 1496 1496 1497 1498 1499 1500 1501 1501 1502 1503 1504 1504 1505 1506 1506 1507 1508 1509 1510 1511 1511 1512 1513 1514 1514 1515 1515 1516 1516 1516 1517 1517 1517 1517 1517 1517 1518
1461 1462 1463 1464 1465 1466 1467 1468 1469 1470 1471 1473 1474 1475 1476 1477 1478 1480 1481 1482 1483 1484 1485 1486 1487 1488 1489 1490 1491 1491 1492 1493 1494 1495 1495 1496 1497 1498 1499 1500 1501 1501 1502 1502 1503 1504 1504 1505 1506 1507 1508 1509 1510 1511 1511 1512 1512 1513 1513 1513 1513 1514 1514 1515 1515 1515 1515 1515 1515
1459 1460 1461 1462 1463 1464 1465 1466 1468 1469 1470 1471 1472 1474 1475 1476 1477 1478 1479 1480 1481 1482 1484 1485 1485 1486 1487 1488 1489 1490 1491 1491 1492 1493 1494 1495 1496 1496 1497 1498 1499 1499 1500 1501 1501 1502 1503 1504 1505 1506 1507 1508 1508 1509 1509 1509 1510 1510 1510 1510 1510 1511 1511 1512 1512 1512 1512 1512 1513
1457 1458 1459 1460 1461 1463 1464 1465 1466 1467 1469 1470 1471 1472 1473 1474 1476 1476 1477 1479 1480 1481 1482 1483 1483 1484 1485 1486 1487 1488 1489 1490 1491 1492 1493 1494 1494 1495 1496 1496 1497 1497 1498 1499 1500 1501 1502 1503 1504 1505 1505 1506 1506 1506 1506 1506 1506 1507 1507 1507 1508 1508 1508 1509 1509 1509 1510 1510 1510
1456 1456 1458 1459 1460 1461 1462 1464 1465 1466 1467 1468 1469 1471 1472 1473 1474 1475 1476 1477 1478 1480 1480 1481 1482 1482 1483 1484 1485 1486 1487 1488 1490 1491 1491 1492 1493 1494 1495 1495 1496 1496 1497 1498 1499 1500 1501 1501 1502 1503 1503 1503 1504 1504 1504 1504 1504 1504 1505 1505 1505 1505 1506 1506 1506 1506 1507 1507 1507
1454 1455 1456 1458 1459 1460 1461 1462 1464 1465 1466 1467 1468 1469 1470 1471 1472 1473 1475 1476 1477 1478 1479 1480 1480 1481 1482 1483 1484 1485 1486 1487 1488 1489 1490 1491 1491 1492 1493 1494 1495 1496 1496 1496 1497 1498 1499 1499 1500 1500 1501 1501 1501 1501 1501 1501 1501 1502 1502 1502 1502 1502 1503 1503 1503 1504 1504 1505 1505
1452 1454 1455 1456 1457 1459 1460 1461 1462 1463 1465 1466 1467 1468 1469 1470 1471 1472 1473 1474 1475 1476 1477 1478 1478 1479 1480 1481 1482 1483 1484 1485 1486 1487 1488 1489 1490 1490 1491 1492 1493 1494 1494 1495 1496 1496 1497 1497 1497 1497 1498 1498 1499 1499 1499 1499 1499 1499 1499 1500 1500 1500 1501 1501 1501 1502 1502 1503 1503
1451 1452 1454 1455 1456 1457 1459 1460 1461 1462 1463 1464 1465 1466 1467 1468 1470 1471 1472 1473 1474 1475 1475 1476 1476 1477 1478 1479 1480 1481 1482 1483 1484 1484 1485 1486 1487 1488 1489 1490 1490 1491 1492 1493 1493 1494 1495 1495 1495 1495 1496 1496 1497 1497 1496 1496 1496 1497 1497 1498 1498 1499 1499 1500 1501 1501 1501 1501 1502
1450 1451 1453 1454 1455 1456 1457 1459 1460 1461 1462 1463 1464 1465 1466 1466 1468 1469 1470 1471 1472 1473 1474 1474 1475 1476 1476 1477 1478 1479 1480 1481 1481 1482 1483 1484 1485 1486 1486 1487 1487 1488 1489 1490 1491 1491 1492 1493 1493 1494 1494 1495 1495 1495 1495 1495 1495 1495 1495 1496 1496 1497 1498 1499 1499 1500 1500 1501 1501
1449 1450 1451 1452 1454 1455 1456 1457 1458 1459 1461 1461 1462 1463 1463 1464 1465 1466 1467 1469 1470 1471 1471 1472 1473 1474 1475 1476 1476 1477 1478 1479 1480 1481 1481 1482 1483 1484 1485 1485 1485 1486 1486 1487 1488 1489 1490 1491 1491 1492 1492 1492 1492 1493 1493 1493 1493 1493 1494 1494 1495 1496 1496 1497 1498 1499 1499 1500 1501
1448 1449 1450 1451 1452 1453 1454 1455 1456 1457 1459 1461 1461 1462 1462 1462 1463 1464 1465 1466 1467 1468 1469 1470 1471 1473 1474 1475 1476 1476 1476 1477 1478 1479 1480 1481 1481 1482 1482 1483 1483 1483 1483 1484 1485 1487 1488 1489 1489 1490 1490 1491 1491 1491 1491 1492 1492 1492 1493 1493 1494 1494 1495 1496 1496 1497 1498 1499 1500
1446 1447 1448 1449 1451 1451 1452 1453 1454 1455 1456 1457 1459 1461 1461 1462 1462 1462 1463 1464 1465 1466 1467 1469 1471 1472 1473 1473 1474 1475 1475 1476 1476 1477 1479 1480 1480 1480 1480 1480 1480 1480 1481 1482 1483 1484 1486 1486 1487 1488 1488 1489 1489 1489 1490 1491 1491 1491 1491 1492 1492 1493 1494 1494 1495 1496 1497 1498 1498
1444 1446 1447 1448 1449 1450 1451 1452 1452 1453 1454 1455 1456 1458 1459 1460 1461 1461 1462 1463 1463 1465 1466 1469 1470 1472 1473 1473 1471 1470 1470 1471 1472 1474 1475 1477 1478 1478 1478 1478 1477 1478 1479 1480 1481 1482 1483 1484 1485 1486 1487 1487 1487 1488 1488 1489 1489 1490 1490 1490 1491 1491 1492 1493 1494 1495 1496 1496 1496
1443 1444 1446 1446 1447 1448 1449 1450 1451 1452 1453 1454 1455 1456 1457 1458 1459 1460 1460 1461 1462 1464 1466 1468 1470 1470 1470 1469 1468 1468 1468 1469 1470 1471 1472 1473 1475 1476 1476 1476 1476 1476 1476 1478 1479 1481 1482 1482 1483 1484 1485 1486 1486 1486 1487 1487 1488 1488 1489 1489 1489 1490 1491 1492 1493 1493 1494 1494 1494
1441 1443 1444 1445 1446 1447 1448 1449 1450 1451 1451 1453 1454 1455 1456 1456 1457 1458 1459 1460 1461 1463 1465 1467 1468 1467 1466 1466 1467 1468 1468 1468 1468 1468 1468 1469 1471 1472 1473 1474 1474 1474 1475 1476 1478 1479 1480 1481 1482 1483 1484 1484 1484 1485 1485 1486 1487 1487 1487 1488 1488 1488 1490 1491 1491 1491 1492 1492 1493
1440 1441 1443 1444 1445 1446 1446 1447 1448 1449 1450 1451 1452 1453 1454 1455 1456 1457 1458 1459 1461 1462 1464 1465 1465 1465 1465 1466 1467 1467 1467 1466 1466 1466 1466 1466 1468 1470 1471 1472 1472 1473 1474 1476 1477 1478 1479 1479 1481 1481 1482 1482 1483 1483 1484 1485 1485 1486 1486 1486 1486 1487 1488 1489 1489 1490 1490 1491 1491
1438 1440 1441 1442 1443 1444 1445 1446 1447 1448 1449 1450 1451 1451 1452 1454 1455 1456 1457 1458 1460 1461 1462 1463 1463 1463 1464 1466 1466 1466 1465 1465 1464 1464 1464 1465 1467 1468 1470 1471 1471 1472 1473 1475 1476 1477 1477 1478 1479 1480 1481 1481 1481 1482 1482 1483 1483 1484 1484 1484 1485 1486 1486 1486 1487 1488 1488 1489 1490
1437 1438 1439 1440 1441 1442 1443 1444 1445 1446 1447 1448 1449 1451 1451 1453 1454 1455 1456 1457 1459 1460 1461 1461 1461 1462 1463 1464 1464 1464 1463 1463 1463 1463 1464 1465 1466 1468 1469 1470 1471 1471 1472 1473 1475 1476 1476 1477 1478 1479 1479 1479 1480 1480 1481 1481 1481 1482 1482 1483 1483 1484 1484 1485 1486 1486 1487 1487 1488
1435 1436 1437 1438 1439 1440 1441 1442 1444 1445 1446 1447 1449 1450 1451 1452 1453 1454 1455 1456 1457 1459 1459 1460 1460 1461 1462 1462 1462 1462 1461 1461 1462 1462 1463 1465 1466 1467 1468 1469 1469 1470 1471 1472 1473 1474 1475 1476 1477 1477 1478 1478 1478 1478 1479 1479 1480 1480 1481 1481 1481 1482 1482 1483 1484 1485 1485 1485 1486
1433 1434 1436 1436 1437 1438 1440 1441 1442 1443 1445 1446 1447 1449 1451 1452 1452 1452 1454 1455 1457 1458 1458 1459 1459 1460 1461 1461 1461 1460 1460 1461 1461 1462 1463 1464 1465 1466 1467 1468 1468 1469 1470 1471 1472 1473 1474 1475 1476 1476 1476 1476 1476 1476 1477 1477 1478 1478 1479 1479 1479 1480 1481 1481 1482 1482 1483 1483 1483
1431 1432 1434 1435 1436 1437 1438 1439 1441 1442 1443 1444 1446 1448 1450 1451 1450 1451 1452 1454 1456 1456 1457 1457 1458 1459 1459 1459 1459 1459 1459 1460 1460 1461 1462 1463 1464 1465 1466 1466 1467 1468 1469 1470 1471 1472 1473 1474 1474 1475 1475 1475 1475 1475 1475 1476 1476 1476 1477 1477 1478 1478 1479 1479 1480 1480 1481 1481 1481
1430 1431 1432 1433 1434 1435 1436 1438 1439 1440 1441 1443 1446 1447 1448 1448 1449 1449 1451 1451 1453 1455 1456 1456 1456 1457 1458 1458 1458 1458 1459 1459 1460 1461 1461 1462 1463 1464 1465 1465 1466 1467 1468 1469 1470 1471 1472 1473 1473 1473 1473 1473 1473 1473 1474 1474 1474 1475 1475 1476 1476 1476 1477 1477 1478 1478 1478 1479 1479
1428 1430 1431 1431 1433 1434 1435 1437 1438 1440 1441 1442 1444 1446 1446 1447 1448 1449 1449 1450 1451 1453 1454 1454 1455 1456 1456 1457 1457 1457 1458 1458 1459 1460 1461 1462 1462 1463 1464 1464 1465 1466 1467 1468 1470 1471 1471 1471 1471 1471 1471 1471 1471 1471 1472 1472 1473 1473 1473 1474 1474 1475 1475 1476 1476 1476 1477 1477 1478
1427 1428 1430 1431 1432 1433 1435 1436 1438 1439 1440 1441 1443 1444 1445 1446 1447 1448 1448 1449 1450 1451 1452 1453 1454 1455 1455 1456 1456 1456 1456 1457 1458 1459 1460 1461 1462 1462 1463 1463 1464 1465 1466 1468 1469 1469 1470 1470 1470 1470 1470 1470 1470 1470 1470 1471 1471 1471 1472 1472 1472 1473 1474 1474 1475 1475 1476 1476 1476
1426 1427 1429 1430 1431 1432 1434 1436 1437 1438 1440 1441 1442 1443 1445 1446 1446 1447 1447 1448 1449 1450 1451 1452 1453 1454 1454 1454 1455 1455 1456 1456 1457 1458 1459 1460 1461 1461 1462 1463 1463 1465 1466 1467 1468 1468 1468 1469 1469 1469 1469 1469 1469 1469 1469 1469 1470 1470 1470 1471 1471 1472 1472 1473 1474 1474 1475 1475 1476